Location: Newark
(50.0306°N, 2.3272°E)
Time: 16:12:57
(UTC+00:00)

Vanguard 3 - All Passes

Search period start: 08 December 2019 00:00
Search period end: 18 December 2019 00:00
Orbit: 508 x 3263 km, 33.3° (Epoch: 07 December)

Date Brightness Start Highest point End Pass type
(mag) Time Alt. Az. Time Alt. Az. Time Alt. Az.
08 Dec - 06:34:18 10° SSE 06:37:10 12° SE 06:40:27 10° ESE visible
08 Dec - 08:39:04 10° SSW 08:47:33 31° SSE 09:00:24 10° ESE daylight
08 Dec - 10:48:52 10° WSW 11:00:08 40° S 11:16:33 10° ESE daylight
08 Dec - 13:00:58 10° WSW 13:13:52 33° SSW 13:30:00 10° SSE daylight
08 Dec - 15:17:18 10° WSW 15:27:07 17° SW 15:37:31 10° S daylight
09 Dec - 07:27:17 10° S 07:33:40 22° SE 07:42:42 10° ESE daylight
09 Dec - 09:35:36 10° SW 09:45:07 37° SSE 09:59:45 10° ESE daylight
09 Dec - 11:46:30 10° WSW 11:58:20 37° S 12:14:41 10° SE daylight
09 Dec - 14:00:09 10° WSW 14:11:55 24° SSW 14:25:37 10° SSE daylight
10 Dec - 06:17:46 10° SSE 06:20:23 12° SE 06:23:21 10° ESE visible
10 Dec - 08:22:58 10° SW 08:30:42 30° SSE 08:42:36 10° ESE daylight
10 Dec - 10:32:45 10° WSW 10:43:03 38° S 10:58:31 10° ESE daylight
10 Dec - 12:44:47 10° WSW 12:56:32 30° SSW 13:11:40 10° SSE daylight
10 Dec - 15:02:02 10° WSW 15:09:38 14° SW 15:17:48 10° SSW daylight
11 Dec - 07:11:08 10° SSW 07:16:56 21° SSE 07:25:08 10° ESE daylight
11 Dec - 09:19:34 10° SW 09:28:14 35° S 09:41:49 10° ESE daylight
11 Dec - 11:30:24 10° WSW 11:41:11 34° SSW 11:56:28 10° SE daylight
11 Dec - 13:44:15 10° WSW 13:54:33 21° SSW 14:06:45 10° S daylight
12 Dec - 06:01:29 10° SSE 06:03:41 11° SE 06:06:13 10° ESE visible
12 Dec - 08:06:57 10° SW 08:13:59 29° SSE 08:24:50 10° ESE daylight
12 Dec - 10:16:44 10° WSW 10:26:07 35° S 10:40:24 10° SE daylight
12 Dec - 12:28:48 10° WSW 12:39:19 26° SSW 12:53:07 10° SSE daylight
12 Dec - 14:48:24 10° SW 14:52:16 11° SW 14:56:19 10° SSW daylight
13 Dec - 06:55:07 10° SSW 07:00:18 20° SSE 07:07:39 10° ESE visible
13 Dec - 09:03:38 10° SW 09:11:29 33° S 09:23:51 10° ESE daylight
13 Dec - 11:14:28 10° WSW 11:24:11 30° SSW 11:38:06 10° SE daylight
13 Dec - 13:28:47 10° WSW 13:37:17 17° SSW 13:47:23 10° S daylight
14 Dec - 05:45:24 10° SSE 05:47:08 11° SE 05:49:03 10° SE visible
14 Dec - 07:51:03 10° SW 07:57:23 27° SSE 08:07:06 10° ESE daylight
14 Dec - 10:00:52 10° WSW 10:09:19 32° S 10:22:14 10° SE daylight
14 Dec - 12:13:04 10° WSW 12:22:14 23° SSW 12:34:17 10° SSE daylight
15 Dec - 06:39:11 10° SSW 06:43:48 19° SSE 06:50:14 10° ESE visible
15 Dec - 08:47:48 10° SW 08:54:52 30° S 09:05:54 10° ESE daylight
15 Dec - 10:58:42 10° WSW 11:07:18 26° SSW 11:19:34 10° SSE daylight
15 Dec - 13:14:02 10° WSW 13:20:11 14° SW 13:27:15 10° S daylight
16 Dec - 05:29:36 10° SSE 05:30:39 10° SE 05:31:47 10° SE visible
16 Dec - 07:35:15 10° SW 07:40:54 25° SSE 07:49:26 10° ESE daylight
16 Dec - 09:45:07 10° WSW 09:52:38 28° S 10:03:59 10° SE daylight
16 Dec - 11:57:40 10° WSW 12:05:18 19° SSW 12:15:06 10° S daylight
17 Dec - 06:23:21 10° SSW 06:27:24 18° SSE 06:32:53 10° ESE visible
17 Dec - 08:32:04 10° SW 08:38:22 27° S 08:47:58 10° SE daylight
17 Dec - 10:43:08 10° WSW 10:50:33 22° SSW 11:00:53 10° SSE daylight
